{"data":{"norad_id":41335,"intl_designator":"2016-011A","name":"SENTINEL-3A","alt_names":[],"object_type":"PAYLOAD","status":"ACTIVE","operator":null,"country":"ESA","launch_date":"2016-02-16","launch_site_code":"PLMSC","launch_vehicle":null,"mission":null,"orbit_class":"UNKNOWN","rcs_meters":3.9811,"size_class":null,"mass_kg":null,"dimensions":null,"purposes":["earth_obs"],"wikipedia_slug":null,"has_3d_model":false,"image_url":null,"decayed_at":null,"tle_current":{"epoch":"2026-09-20T04:08:15.005760Z","epoch_age_seconds":46414,"freshness":"FRESH","line1":"1 41335U 16011A   26263.17239590  .00000036  00000+0  33109-4 0  9998","line2":"2 41335  98.6276 329.1806 0001160 106.6100 253.5208 14.26735676551606","mean_motion":14.26735676,"eccentricity":0.000116,"inclination_deg":98.6276,"raan_deg":329.1806,"arg_perigee_deg":106.61,"mean_anomaly_deg":253.5208,"bstar":3.3109e-5,"rev_number":55160,"period_min":100.92969736603,"perigee_km":801.82996737811,"apogee_km":803.49591296423,"semimajor_km":7180.7999401712,"source":"CELESTRAK","updated_at":"2026-09-20T09:00:33.966267Z"}}}